Harbor Springs, MI

9:50 AM EDT on May 28, 2017 (GMT -0400)
Harbor Springs

Weather History for KMGN - November, 2013

Change the Weather History Date:

Wednesday, November 13, 2013

  Actual Average (KPLN) Record (KPLN)
Temperature  
Mean Temperature 34 °F -  
Max Temperature 42 °F 39 °F 62 °F (1999)
Min Temperature 27 °F 26 °F 10 °F (2013)
Degree Days  
Heating Degree Days 30    
Moisture  
Dew Point 27 °F    
Average Humidity 69    
Maximum Humidity 87    
Minimum Humidity 56    
Precipitation  
Precipitation 0.00 in - - ()
Sea Level Pressure  
Sea Level Pressure 30.12 in    
Wind  
Wind Speed 11 mph (SW)    
Max Wind Speed 24 mph    
Max Gust Speed 36 mph    
Visibility 10 miles    
Events      
Averages and records for this station are not official NWS values.
T = Trace of Precipitation, MM = Missing Value Source: NWS Daily Summary

Daily Weather History Graph

Daily Weather History Graph

Search for Another Location

Airport or City:

Trip Planner

Search our weather history database for the weather conditions in past years. The results will help you decide how hot, cold, wet, or windy it might be!

Date:

Astronomy

Nov. 13, 2013 Rise Set
Actual Time 7:36 AM EST 5:11 PM EST
Civil Twilight 7:04 AM EST 5:43 PM EST
Nautical Twilight 6:28 AM EST 6:19 PM EST
Astronomical Twilight 5:53 AM EST 6:53 PM EST
Moon 3:07 PM EST (11/13) 3:17 AM EST (11/13)
Length of Visible Light 10h 39m
Length of Day
9h 35m
Waxing Gibbous, 84% of the Moon is Illuminated
Nov 13
Waxing Gibbous
Nov 17
Full
Nov 25
Last Quarter
Dec 2
New
Dec 9
First Quarter

Hourly Weather History & Observations

Time (EST) Temp. Windchill Dew Point Humidity Pressure Visibility Wind Dir Wind Speed Gust Speed Precip Events Conditions
12:14 AM 29.8 °F - 18.3 °F 62% 30.40 in 10.0 mi Calm Calm - N/A   Clear
12:34 AM 28.4 °F 24.6 °F 18.0 °F 65% 30.40 in 10.0 mi NNW 3.5 mph - N/A   Scattered Clouds
12:55 AM 27.7 °F 22.4 °F 17.6 °F 66% 30.39 in 10.0 mi NNW 4.6 mph - N/A   Scattered Clouds
1:14 AM 29.8 °F 23.9 °F 19.4 °F 65% 30.39 in 10.0 mi NW 5.8 mph - N/A   Scattered Clouds
1:34 AM 31.3 °F 24.7 °F 19.2 °F 61% 30.38 in 10.0 mi West 6.9 mph - N/A   Scattered Clouds
1:55 AM 31.5 °F 25.8 °F 19.9 °F 62% 30.36 in 10.0 mi West 5.8 mph - N/A   Scattered Clouds
2:14 AM 32.7 °F 25.0 °F 20.8 °F 62% 30.36 in 10.0 mi West 9.2 mph - N/A   Scattered Clouds
2:34 AM 32.2 °F 25.0 °F 20.7 °F 63% 30.36 in 10.0 mi West 8.1 mph - N/A   Scattered Clouds
2:55 AM 34.2 °F 27.5 °F 23.0 °F 64% 30.35 in 10.0 mi West 8.1 mph - N/A   Mostly Cloudy
3:14 AM 34.7 °F 26.4 °F 23.7 °F 64% 30.34 in 10.0 mi WSW 11.5 mph 21.9 mph N/A   Mostly Cloudy
3:34 AM 34.7 °F 28.1 °F 23.9 °F 65% 30.34 in 10.0 mi West 8.1 mph 19.6 mph N/A   Mostly Cloudy
3:55 AM 34.7 °F 26.9 °F 25.3 °F 69% 30.33 in 10.0 mi SSW 10.4 mph 17.3 mph N/A   Mostly Cloudy
4:14 AM 30.2 °F 22.6 °F 23.7 °F 77% 30.32 in 10.0 mi SSW 8.1 mph - N/A   Mostly Cloudy
4:34 AM 30.6 °F 22.4 °F 25.0 °F 80% 30.31 in 10.0 mi SSW 9.2 mph - N/A   Mostly Cloudy
4:55 AM 32.0 °F 22.5 °F 25.9 °F 78% 30.30 in 10.0 mi SW 12.7 mph 18.4 mph N/A   Mostly Cloudy
5:14 AM 32.5 °F 24.2 °F 25.9 °F 76% 30.30 in 10.0 mi SSW 10.4 mph 23.0 mph N/A   Overcast
5:34 AM 29.8 °F 22.2 °F 24.6 °F 81% 30.30 in 10.0 mi SSW 8.1 mph - N/A   Mostly Cloudy
5:55 AM 29.8 °F 20.3 °F 24.8 °F 81% 30.29 in 10.0 mi South 11.5 mph - N/A   Mostly Cloudy
6:14 AM 29.8 °F 22.2 °F 25.7 °F 85% 30.29 in 10.0 mi South 8.1 mph - N/A   Mostly Cloudy
6:35 AM 29.8 °F 22.2 °F 26.1 °F 86% 30.28 in 10.0 mi South 8.1 mph - N/A   Mostly Cloudy
6:54 AM 30.2 °F 20.2 °F 26.1 °F 85% 30.27 in 10.0 mi SSW 12.7 mph - N/A   Overcast
7:14 AM 30.0 °F 20.5 °F 26.1 °F 85% 30.26 in 10.0 mi SSW 11.5 mph 17.3 mph N/A   Overcast
7:35 AM 31.1 °F 20.9 °F 27.3 °F 86% 30.25 in 10.0 mi SSW 13.8 mph 19.6 mph N/A   Overcast
7:54 AM 30.2 °F 20.2 °F 26.8 °F 87% 30.24 in 10.0 mi SSW 12.7 mph 17.3 mph N/A   Overcast
8:14 AM 30.0 °F 21.7 °F 26.6 °F 87% 30.24 in 10.0 mi SSW 9.2 mph - N/A   Overcast
8:35 AM 30.9 °F 22.8 °F 27.1 °F 86% 30.24 in 10.0 mi SSW 9.2 mph - N/A   Overcast
8:54 AM 32.0 °F 23.6 °F 28.4 °F 87% 30.24 in 10.0 mi SSW 10.4 mph 18.4 mph N/A   Overcast
9:14 AM 32.2 °F 22.7 °F 28.6 °F 87% 30.23 in 10.0 mi SSW 12.7 mph 20.7 mph N/A   Overcast
9:35 AM 32.4 °F 23.5 °F 28.9 °F 87% 30.22 in 10.0 mi SSW 11.5 mph 19.6 mph N/A   Overcast
9:54 AM 34.7 °F 25.9 °F 30.2 °F 84% 30.21 in 10.0 mi SSW 12.7 mph 18.4 mph N/A   Mostly Cloudy
10:14 AM 34.7 °F 25.9 °F 29.3 °F 81% 30.20 in 10.0 mi SSW 12.7 mph 19.6 mph N/A   Scattered Clouds
10:35 AM 34.7 °F 24.7 °F 28.6 °F 78% 30.20 in 10.0 mi SW 16.1 mph 20.7 mph N/A   Scattered Clouds
10:54 AM 36.9 °F 27.5 °F 29.5 °F 75% 30.19 in 10.0 mi SW 16.1 mph 23.0 mph N/A   Clear
11:14 AM 37.0 °F 27.0 °F 28.4 °F 71% 30.18 in 10.0 mi SW 18.4 mph 25.3 mph N/A   Clear
11:35 AM 37.0 °F 27.7 °F 27.9 °F 69% 30.17 in 10.0 mi SW 16.1 mph 23.0 mph N/A   Clear
11:54 AM 37.0 °F 27.0 °F 27.0 °F 67% 30.16 in 10.0 mi SW 18.4 mph 25.3 mph N/A   Clear
12:14 PM 37.9 °F 29.2 °F 27.5 °F 66% 30.14 in 10.0 mi SW 15.0 mph 27.6 mph N/A   Clear
12:35 PM 38.5 °F 28.6 °F 27.5 °F 65% 30.13 in 10.0 mi SW 19.6 mph 28.8 mph N/A   Clear
12:54 PM 37.8 °F 29.0 °F 27.3 °F 66% 30.11 in 10.0 mi SW 15.0 mph 28.8 mph N/A   Clear
1:14 PM 37.9 °F 30.0 °F 27.9 °F 67% 30.09 in 10.0 mi SSW 12.7 mph 23.0 mph N/A   Clear
1:35 PM 39.6 °F 31.3 °F 28.6 °F 65% 30.07 in 10.0 mi SW 15.0 mph 24.2 mph N/A   Clear
1:54 PM 39.6 °F 32.1 °F 28.4 °F 64% 30.06 in 10.0 mi SW 12.7 mph 21.9 mph N/A   Clear
2:14 PM 39.6 °F 30.3 °F 27.7 °F 62% 30.03 in 10.0 mi SW 18.4 mph 27.6 mph N/A   Clear
2:35 PM 41.2 °F 33.0 °F 28.4 °F 60% 30.02 in 10.0 mi SW 16.1 mph 25.3 mph N/A   Clear
2:54 PM 41.0 °F 32.5 °F 28.2 °F 60% 30.00 in 10.0 mi SW 17.3 mph 27.6 mph N/A   Clear
3:14 PM 41.0 °F 31.9 °F 28.4 °F 61% 29.99 in 10.0 mi SW 19.6 mph 26.5 mph N/A   Clear
3:35 PM 41.0 °F 32.5 °F 28.2 °F 60% 29.98 in 10.0 mi SW 17.3 mph 26.5 mph N/A   Clear
3:54 PM 41.0 °F 31.9 °F 27.9 °F 60% 29.97 in 10.0 mi SW 19.6 mph 28.8 mph N/A   Clear
4:14 PM 41.0 °F 32.5 °F 27.3 °F 58% 29.95 in 10.0 mi SW 17.3 mph 26.5 mph N/A   Clear
4:35 PM 41.0 °F 32.8 °F 26.4 °F 56% 29.94 in 10.0 mi SW 16.1 mph 32.2 mph N/A   Clear
4:54 PM 41.0 °F 32.2 °F 26.8 °F 57% 29.92 in 10.0 mi SW 18.4 mph 28.8 mph N/A   Clear
5:15 PM 40.3 °F 31.0 °F 27.0 °F 59% 29.91 in 10.0 mi SW 19.6 mph 32.2 mph N/A   Clear
5:35 PM 40.1 °F 31.3 °F 27.0 °F 59% 29.91 in 10.0 mi SW 17.3 mph 28.8 mph N/A   Clear
5:54 PM 40.1 °F 30.7 °F 27.1 °F 60% 29.90 in 10.0 mi SW 19.6 mph 29.9 mph N/A   Clear
6:15 PM 40.5 °F 30.4 °F 27.0 °F 59% 29.90 in 10.0 mi SW 23.0 mph 33.4 mph N/A   Clear
6:35 PM 40.6 °F 30.7 °F 27.5 °F 59% 29.90 in 10.0 mi SW 23.0 mph 29.9 mph N/A   Clear
6:54 PM 40.8 °F 32.0 °F 27.7 °F 60% 29.89 in 10.0 mi SW 18.4 mph 35.7 mph N/A   Clear
7:15 PM 40.6 °F 32.0 °F 28.0 °F 61% 29.88 in 10.0 mi SW 17.3 mph 31.1 mph N/A   Clear
7:35 PM 40.5 °F 30.7 °F 28.0 °F 61% 29.88 in 10.0 mi SW 21.9 mph 28.8 mph N/A   Clear
7:54 PM 41.0 °F 30.9 °F 28.6 °F 61% 29.88 in 10.0 mi SW 24.2 mph 29.9 mph N/A   Clear
8:15 PM 41.0 °F 31.6 °F 29.1 °F 63% 29.88 in 10.0 mi SW 20.7 mph 33.4 mph N/A   Clear
8:35 PM 41.2 °F 31.4 °F 29.8 °F 64% 29.88 in 10.0 mi SW 23.0 mph 32.2 mph N/A   Clear
8:54 PM 41.2 °F 31.6 °F 30.2 °F 65% 29.88 in 10.0 mi SW 21.9 mph 28.8 mph N/A   Clear
9:15 PM 42.3 °F 33.1 °F 31.6 °F 66% 29.88 in 10.0 mi SW 21.9 mph 32.2 mph N/A   Clear
9:35 PM 42.3 °F 33.1 °F 31.3 °F 65% 29.88 in 10.0 mi SW 21.9 mph 32.2 mph N/A   Clear
9:54 PM 42.3 °F 33.8 °F 31.6 °F 66% 29.89 in 10.0 mi SW 18.4 mph 28.8 mph N/A   Clear
10:15 PM 42.4 °F 34.1 °F 32.0 °F 67% 29.90 in 10.0 mi SW 18.4 mph 29.9 mph N/A   Clear
10:35 PM 42.6 °F 34.3 °F 32.0 °F 66% 29.90 in 10.0 mi SW 18.4 mph 29.9 mph N/A   Clear
10:54 PM 42.8 °F 34.5 °F 32.0 °F 66% 29.90 in 10.0 mi SW 18.4 mph 28.8 mph N/A   Clear
11:15 PM 42.8 °F 34.5 °F 31.8 °F 65% 29.90 in 10.0 mi SW 18.4 mph 29.9 mph N/A   Clear
11:34 PM 42.8 °F 33.5 °F 31.8 °F 65% 29.90 in 10.0 mi WSW 23.0 mph 33.4 mph N/A   Clear
11:54 PM 42.8 °F 34.0 °F 32.0 °F 66% 29.90 in 10.0 mi SW 20.7 mph 28.8 mph N/A   Clear